Warning: Javascript must be enabled to use all the features on this page!


Page Loading - Please Wait...

* We've detected you're using a mobile device. Find our Next Generation Station Page here.
Click to hideNews Bulletins

Peak Streamflow for the Nation

USGS 04097540 PRAIRIE RIVER NEAR NOTTAWA, MI

St. Joseph County, Michigan
Hydrologic Unit Code 04050001
Latitude  41°53'18", Longitude  85°24'34" NAD27
Drainage area 106  square miles
Gage datum 839.35 feet above NAVD88
Output formats
Table
Graph
Tab-separated file
peakfq (watstore) format
Reselect output format
Water
Year
Date Gage
Height
(feet)
Stream-
flow
(cfs)
1963 1963-03-22 3.95 161
1964 1964-04-07 3.28 102
1965 1965-04-14 4.90 284
1966 1965-12-28 5.26 333
1967 1966-12-10 5.06 310
1968 1968-02-04 5.49 467
1969 1969-02-02 5.40 421
1970 1970-04-23 4.78 271
1971 1971-02-21 4.64 245
1972 1972-04-20 4.282 190
1973 1973-01-03 4.842 283
1974 1974-02-25 5.45 454
1975 1975-08-26 5.03 318
1976 1976-03-06 5.66 523
1977 1977-03-31 4.45 209
1978 1978-03-25 5.37 450
1979 1979-03-06 5.29 422
1980 1980-06-09 5.861 375
1981 1981-07-31 5.55 474
1982 1982-03-20 6.12 698
1983 1983-05-05 4.98 367
1984 1984-04-19 4.67 258
1985 1985-02-26 6.30 797
1986 1986-07-17 5.30 400
1987 1986-10-06 4.802 254
1988 1988-04-09 4.282 197
1989 1989-06-03 5.74 569
1990 1990-02-25 5.172 385
1991 1991-01-01 5.981 5102
1992 1992-07-26 4.412 216
1993 1993-01-06 5.49 448
1994 1994-02-21 4.482 226
1995 1995-03-09 3.832 179
1996 1996-06-21 5.39 486
1997 1997-02-23 5.08 388
1998 1998-01-10 5.38 448
1999 1999-04-25 5.08 358
2000 2000-05-21 4.38 211
2001 2001-02-11 5.601 4862
2002 2002-05-14 5.24 406
2003 2003-05-13 4.45 217
2004 2004-06-14 5.17 382
2005 2005-01-15 5.44 467
2006 2006-03-15 4.89 286
2007 2007-08-26 4.892 261
2008 2008-01-11 6.29 714
2009 2009-03-12 5.73 486
2010 2010-05-24 4.94 263
2011 2011-05-29 5.19 321
2012 2011-12-17 5.312 319
2013 2013-04-21 5.91 547
2014 2014-04-06 5.24 327
2015 2015-07-21 4.67 203
2016 2016-05-04 4.332 150
2017 2017-03-03 5.15 293
2018 2018-02-23 6.80 811
2019 2019-05-03 5.61 405
2020 2020-05-20 5.97 602
2021 2021-06-29 4.43 155
?
  Peak Gage-Height Qualification Codes.
?
  Peak Streamflow Qualification Codes.